Regional Weather Roundup
Issued by NWS Columbia, SC

Home | Current Version | Previous Version | Text Only | Print | Product List | Glossary On
Versions: 1 2 3 4 5 6 7 8 9 10 11 12 13 14 15 16 17 18 19 20 21 22 23 24 25 26 27 28 29 30 31 32 33 34 35 36 37 38 39 40 41 42 43 44 45 46 47 48 49 50
000
ASUS42 KCAE 040810
RWRCAE
REGIONAL WEATHER ROUNDUP
NATIONAL WEATHER SERVICE COLUMBIA SC
400 AM EDT FRI SEP 04 2015

NOTE: "FAIR" INDICATES FEW OR NO CLOUDS BELOW 12,000 FEET WITH NO
SIGNIFICANT WEATHER AND/OR OBSTRUCTIONS TO VISIBILITY.

NOT ALL STATIONS ARE QUALITY CONTROLLED BY THE NATIONAL
WEATHER SERVICE. USE DATA WITH CAUTION...ESPECIALLY
DEWPOINT OBSERVATIONS.

SCZ001>056-GAZ040-063>065-077-040900-
...UPSTATE SOUTH CAROLINA...

CITY           SKY/WX    TMP DP  RH WIND       PRES   REMARKS
ANDERSON       CLEAR     69  67  93 NW3       29.96R
LIBERTY        SUNNY     66  65  96 CALM      29.96S FOG
SPARTANBURG    CLEAR     73  64  73 CALM      29.96R
CLEMSON        CLEAR     74  67  78 NW3       29.98R
GREENVILLE     CLEAR     76  63  64 N10       29.97R
GREENWOOD      PTCLDY    72  70  93 CALM      29.96R
GREER          CLEAR     75  65  70 NE6       29.96R
ROCK HILL      CLEAR     69  65  86 N3        29.96R
CHESTER        SUNNY     75  64  69 N6        29.96R
LAURENS        SUNNY     68  68 100 N3        29.95R


...CENTRAL SOUTH CAROLINA...

CITY           SKY/WX    TMP DP  RH WIND       PRES   REMARKS
COLUMBIA APT   PTCLDY    75  71  87 W3        29.92R
COLUMBIA OWENS CLEAR     75  71  87 CALM      29.94R
DARLINGTON     CLEAR     72  66  83 SW3       29.93S
FLORENCE       CLEAR     73  70  90 S3        29.92R
MCENTIRE ANGB  PTCLDY    70  69  96 CALM      29.93R FOG
ORANGEBURG     CLEAR     73  71  93 CALM      29.93S
SUMTER SHAW    CLEAR     74  71  92 SW1       29.91R
NEWBERRY       SUNNY     68  68 100 CALM      29.97R FOG
AIKEN          FAIR      70  68  94 CALM      29.97S
BARNWELL       FAIR      73  73 100 CALM      29.94R
MANNING        FAIR      72  72 100 CALM      29.92S
CAMDEN         FAIR      72  70  94 CALM      29.94R
LANCASTER      SUNNY     72  72 100 CALM      29.95R
WINNSBORO      SUNNY     73  72  94 CALM      29.93S


...EASTERN AND COASTAL SOUTH CAROLINA...

CITY           SKY/WX    TMP DP  RH WIND       PRES   REMARKS
MYRTLE BEACH   CLEAR     75  70  83 CALM      29.93S
N MYRTLE BCH   CLEAR     72  70  93 CALM      29.91S FOG
CONWAY         FAIR      70  70 100 CALM      29.92R FOG
MARION         FAIR      72  70  94 CALM      29.92S
HARTSVILLE     FAIR      70  68  94 CALM      29.92S
FLORENCE       CLEAR     73  70  90 S3        29.92R
DARLINGTON     CLEAR     72  66  83 SW3       29.93S
CHARLESTON APT PTCLDY    77  74  90 CALM      29.92S
MOUNT PLEASANT FAIR      75  75 100 CALM      29.92R
WALTERBORO     SUNNY     77  73  88 CALM      29.93S
BEAUFORT       PTCLDY    78  75  90 CALM      29.92F


...EASTERN GEORGIA...

CITY           SKY/WX    TMP DP  RH WIND       PRES   REMARKS
AUGUSTA BUSH F FOG       71  71 100 CALM      29.93R VSB 1/2
AUGUSTA DANIEL CLEAR     77  74  90 CALM      29.94R
THOMSON        CLEAR     74  74 100 CALM      29.99R
WASHINGTON     FAIR      77  77 100 CALM      29.95S
STATESBORO     PTCLDY    74  32  21 CALM      29.93S
SAVANNAH       PTCLDY    77  75  93 CALM      29.92F


...SOUTHERN NORTH CAROLINA...

CITY           SKY/WX    TMP DP  RH WIND       PRES   REMARKS
CHARLOTTE      CLEAR     69  65  86 CALM      29.96R
MONROE         CLEAR     72  65  78 N5        29.95R
WADESBORO        N/A     70  68  94 CALM      29.93R
ROCKINGHAM     SUNNY     71  68  93 CALM      29.93R
RUTHERFORDTON  CLEAR     72  65  79 CALM      29.99R
ASHEVILLE      CLEAR     67  62  84 CALM      30.07R

$$



USA.gov is the U.S. government's official web portal to all federal, state and local government web resources and services.